Theta_e
344 345 346 346 347 346 347 348 348 350 350 350 350 350 351 353 350 351 353 352 353 352 352 354 354 354 354 355 354 355 355 355 356 358 359 358 358 359 359 359 358 357 358 358 358 359 360 359 359 359 359 358 357 356 355 354 354 353 351 351 351 351 349 348 344 345 350 353 352 352 355 356 354 359 355 354 355 358 357 359 359 358 359 360 360
344 345 347 347 346 346 347 348 349 350 350 349 350 349 349 351 352 353 351 352 354 353 353 353 355 354 353 353 354 355 355 355 356 358 358 358 358 358 357 358 358 358 358 357 358 358 360 359 359 358 358 356 355 353 353 354 352 351 350 348 349 352 352 349 348 346 344 350 349 353 352 359 350 357 353 352 354 358 356 356 357 358 358 360 361
345 346 347 347 347 347 348 348 349 349 349 349 349 349 349 349 351 350 349 350 352 353 353 353 354 354 353 353 354 354 355 355 356 358 359 358 358 358 359 359 358 357 357 357 358 359 358 359 359 359 357 355 355 354 353 352 352 350 350 349 350 351 352 351 348 345 345 346 349 349 352 353 350 351 354 355 358 356 355 355 355 356 357 358 358
346 346 346 347 347 347 347 348 349 349 348 349 348 349 349 349 351 349 349 349 348 351 352 352 352 353 352 353 354 354 355 353 354 355 356 358 358 358 359 359 359 359 358 358 358 359 359 359 357 353 353 353 354 354 351 349 348 349 349 350 351 351 353 352 352 345 345 343 348 348 350 349 350 352 354 356 355 355 355 356 357 356 356 356 358
347 347 347 347 347 347 347 348 348 349 349 349 349 349 349 349 350 350 349 348 349 350 351 352 351 351 350 352 352 353 355 352 352 354 356 358 359 359 358 359 359 359 359 359 360 359 359 348 343 344 349 349 350 350 348 347 346 347 347 350 353 354 353 351 349 346 344 344 346 349 350 350 353 353 355 353 354 355 357 356 354 355 356 356 356
350 349 349 348 348 347 348 348 348 349 350 350 350 350 350 350 349 349 350 349 348 347 347 348 349 350 351 351 351 352 354 353 352 352 355 357 358 358 359 359 359 359 358 358 358 356 350 346 346 349 350 349 349 349 348 347 348 346 347 350 352 353 352 347 346 346 344 345 346 347 350 349 351 352 354 354 352 351 352 354 355 355 354 353 354
348 347 346 345 346 348 349 348 350 350 351 350 351 351 349 348 348 348 349 347 347 347 347 348 348 348 350 351 351 352 352 353 354 354 354 355 357 357 358 358 358 358 357 356 353 351 352 351 351 352 351 351 350 348 347 347 347 348 350 350 351 349 349 348 348 348 348 347 348 348 347 350 350 348 353 356 354 353 349 348 348 353 354 353 352
345 345 346 344 344 347 347 348 349 349 349 349 350 352 352 350 349 350 349 348 349 348 348 349 350 352 352 351 352 354 354 354 354 355 355 355 355 355 356 356 356 356 357 354 353 352 352 353 352 351 351 349 349 349 348 347 347 346 349 350 348 345 344 344 344 346 347 347 347 346 348 346 348 351 354 353 350 352 351 348 344 347 349 353 353
344 345 344 343 341 343 345 346 347 352 351 349 350 352 352 349 349 350 351 351 351 351 352 352 352 352 352 351 352 353 353 353 354 355 355 355 355 355 355 355 355 355 354 351 351 351 350 350 350 349 350 351 352 352 353 352 350 348 349 348 347 346 345 345 346 347 348 346 346 347 346 346 346 346 346 346 345 344 348 349 346 348 349 348 351
343 343 343 342 344 345 345 346 345 348 349 349 349 351 352 352 352 351 350 351 351 354 351 350 349 348 347 344 341 341 340 341 342 341 343 351 355 353 354 354 354 352 350 348 348 347 347 348 353 356 355 355 354 354 352 352 352 351 351 350 349 348 347 347 347 346 345 343 343 341 339 340 342 344 344 344 347 348 346 346 343 346 347 346 348
342 343 341 342 344 345 346 345 343 341 346 348 348 350 351 351 351 351 351 350 349 350 349 347 349 345 342 337 335 334 334 334 332 331 335 340 351 353 352 351 347 346 345 346 345 344 345 346 348 349 346 341 339 343 345 347 349 351 352 352 351 351 347 345 346 345 343 341 341 339 339 339 339 342 341 340 342 342 342 345 343 343 341 339 337
341 341 342 342 343 344 344 344 345 345 345 345 347 348 349 348 347 348 350 349 349 350 348 347 341 339 335 332 331 331 330 329 325 329 332 333 341 351 351 348 347 346 346 346 346 345 345 345 345 343 343 337 335 334 341 347 349 351 351 349 348 347 347 345 343 340 340 340 338 338 337 336 336 335 333 334 335 337 341 342 342 341 340 339 340
342 341 342 342 342 343 342 342 342 344 345 346 347 348 347 348 349 348 348 349 348 347 344 337 332 330 329 329 328 327 327 326 324 327 328 329 333 346 348 349 348 347 346 345 344 344 345 341 334 333 336 338 337 334 336 342 348 346 347 347 346 344 339 339 343 343 341 339 336 333 332 332 330 329 332 331 334 335 336 336 339 341 342 340 337
341 341 341 341 341 341 341 341 341 342 343 344 345 346 346 344 344 345 346 347 343 338 334 331 330 329 329 327 326 324 324 323 321 323 324 327 331 342 349 348 346 345 345 345 343 340 337 333 330 331 332 334 336 336 336 337 337 337 336 337 338 341 342 340 338 338 338 334 332 329 330 332 328 330 332 332 330 329 330 332 336 336 336 337 333
339 339 339 340 340 340 340 340 340 341 343 342 341 342 343 342 342 343 344 344 340 334 331 329 329 328 326 327 326 323 321 318 318 320 321 324 328 343 346 344 343 341 336 333 332 331 331 330 329 329 330 331 334 338 334 335 335 335 334 335 336 336 334 334 333 333 333 331 329 328 329 331 332 333 333 333 330 330 333 334 333 334 338 341 329
338 338 338 339 338 339 340 340 340 341 343 342 341 341 341 340 341 342 337 333 332 330 329 329 327 325 325 324 323 322 322 317 317 318 320 323 337 345 345 343 336 330 329 329 332 332 332 330 329 328 329 330 334 336 337 336 334 333 333 333 334 334 334 336 330 333 335 333 333 332 331 331 330 334 334 332 330 330 332 332 331 329 330 330 324
337 337 338 338 339 340 340 339 340 340 341 341 341 341 342 341 340 337 332 331 329 328 327 327 327 325 324 322 321 322 322 318 314 314 317 324 339 343 341 335 331 330 330 331 331 332 331 330 329 329 330 330 329 324 328 333 333 332 332 332 333 333 333 333 330 329 327 325 324 326 326 326 326 325 325 326 331 330 326 323 323 326 323 321 324
335 337 338 340 339 339 339 339 339 338 337 337 336 336 335 336 335 335 331 329 328 328 327 324 324 325 325 323 323 321 322 319 312 312 315 321 337 338 335 334 334 333 334 335 335 332 331 333 333 328 327 328 325 325 328 333 333 333 333 332 330 329 331 333 332 331 330 328 326 326 325 326 327 328 328 327 328 332 325 320 323 326 321 321 318
337 337 338 340 340 340 340 339 337 336 334 334 334 333 332 332 332 332 330 329 327 326 325 322 322 324 325 327 328 323 322 321 312 312 314 319 333 336 333 330 327 327 329 330 332 331 332 333 334 331 329 325 320 323 328 335 334 334 333 331 329 328 329 330 330 328 326 325 325 326 326 327 328 328 329 332 332 332 329 327 327 325 322 321 320
339 340 339 339 338 338 337 336 335 334 333 333 332 332 332 330 328 327 326 325 323 324 324 324 323 323 325 325 326 325 322 321 318 311 312 315 323 331 329 326 327 328 330 330 329 329 328 327 328 323 320 319 318 318 322 326 333 333 333 330 328 327 332 331 328 327 325 325 324 325 325 326 326 326 325 327 329 330 327 329 328 326 323 322 321
338 338 337 337 336 335 335 335 334 333 333 332 331 330 328 327 325 323 321 322 322 323 323 323 322 322 322 323 323 325 326 323 320 311 311 313 318 324 326 327 328 329 329 329 328 326 325 325 325 321 316 315 314 314 316 321 329 332 332 331 331 331 331 328 327 328 325 325 325 325 324 324 323 324 323 324 325 327 326 326 327 328 326 323 321
337 337 336 335 335 334 333 333 332 331 330 329 326 324 324 323 322 322 323 323 323 322 323 322 320 319 319 319 319 319 324 327 323 317 312 311 314 321 329 330 330 329 328 327 326 325 324 323 322 319 314 314 313 312 312 316 322 328 324 316 319 324 328 328 327 326 324 323 322 321 320 320 319 319 320 319 320 325 322 322 323 325 327 325 320
336 336 335 334 333 332 332 331 330 330 328 327 324 322 323 323 324 324 323 323 322 321 320 320 319 318 318 317 317 317 318 323 325 324 317 311 311 315 320 327 324 331 328 326 324 323 324 323 323 319 310 309 309 311 313 315 321 318 313 316 318 322 326 325 324 322 321 319 319 318 318 318 317 316 316 316 317 320 319 319 320 321 323 323 322
335 334 333 332 332 332 331 330 329 328 326 325 324 323 323 324 325 325 324 323 321 319 318 318 318 317 316 316 316 316 316 317 323 325 323 315 311 312 316 319 323 327 326 323 323 322 322 321 318 309 307 305 308 310 312 318 318 310 313 317 320 323 322 320 319 318 318 316 315 315 315 316 316 315 314 314 315 317 315 315 316 316 318 319 318
328 327 326 326 326 326 326 327 327 328 328 326 325 325 324 324 323 324 324 322 320 318 318 319 317 317 316 315 315 315 315 315 317 323 327 324 318 316 317 318 318 319 325 326 325 322 316 310 309 310 310 310 312 315 316 317 314 314 314 317 323 319 319 317 316 315 314 313 313 312 312 313 313 313 315 314 314 314 315 314 314 315 315 317 316
325 324 324 323 323 323 321 320 321 322 323 325 327 327 326 326 324 323 322 320 320 320 320 320 319 317 315 315 315 314 314 315 315 318 325 331 327 321 321 323 329 328 326 323 321 316 313 313 313 314 317 318 322 322 321 320 317 320 320 321 318 317 316 315 315 313 311 311 311 310 310 312 312 313 313 313 311 310 312 311 310 310 311 311 311
324 322 320 320 320 320 320 318 317 318 318 318 319 322 324 326 325 324 322 321 321 321 321 320 319 318 317 316 316 315 314 314 314 315 318 322 326 328 328 328 329 328 326 325 324 322 321 320 317 314 314 318 319 319 319 319 318 316 316 318 318 317 316 314 312 312 312 310 310 310 310 311 313 312 310 309 309 309 310 310 308 308 310 309 310
320 320 320 321 322 322 322 324 317 313 312 313 314 315 317 320 319 318 318 319 319 319 320 320 319 317 315 315 316 316 315 313 312 313 315 319 322 324 326 326 324 324 323 324 324 323 322 322 320 320 318 316 314 314 314 316 316 315 313 313 314 316 316 315 314 311 310 310 309 309 309 309 307 308 308 307 306 307 309 308 307 307 309 308 307
320 318 319 320 320 320 316 314 313 311 310 308 306 306 308 311 314 313 312 310 315 318 317 318 318 316 316 316 317 316 316 315 312 304 309 305 317 322 322 322 322 323 324 317 322 320 320 318 318 316 315 314 313 312 312 312 313 313 312 312 311 311 311 310 308 308 308 308 307 307 306 306 306 306 306 306 305 304 307 306 307 306 307 307 306
316 315 315 315 315 315 314 313 313 312 310 309 308 306 305 300 304 311 309 309 304 302 309 316 316 315 312 311 312 315 315 312 301 298 298 300 301 305 307 307 310 316 314 313 318 316 316 315 315 315 314 314 312 312 311 311 311 310 311 311 311 309 308 308 308 308 308 307 306 305 305 304 304 304 304 304 305 303 304 305 303 305 304 303 304
316 315 317 315 316 314 312 311 310 310 310 310 310 310 307 305 296 298 305 305 300 296 296 298 303 309 317 311 307 302 301 298 296 296 296 297 299 300 301 301 302 304 307 316 316 315 314 314 313 314 314 313 313 312 313 312 311 309 308 308 309 308 308 306 306 307 306 305 305 304 304 303 303 303 302 303 303 301 302 304 303 302 302 302 303
314 314 316 318 318 315 312 314 313 312 311 312 312 311 310 308 306 298 295 297 296 295 295 294 295 297 301 308 313 308 301 297 296 296 297 297 297 297 297 298 300 302 304 309 316 314 314 313 313 313 314 313 314 314 313 311 310 309 308 306 306 307 306 305 305 305 304 304 303 303 302 302 302 302 301 301 301 299 299 300 300 300 300 301 302
315 316 319 319 320 320 317 316 316 314 313 314 313 312 310 310 307 306 304 296 293 293 294 293 293 294 294 293 295 299 299 297 296 296 297 297 297 297 297 297 299 301 306 313 314 312 313 313 312 312 312 312 312 312 312 310 309 307 306 305 305 304 304 305 306 305 304 303 303 301 301 301 301 300 300 299 299 297 298 298 299 299 300 299 301
317 318 318 319 317 317 317 316 315 314 314 313 313 314 316 313 310 309 308 309 309 304 298 295 294 294 292 292 293 292 294 296 296 297 297 298 298 299 301 305 298 300 306 314 313 312 312 311 311 311 311 312 312 312 311 309 308 307 306 305 304 304 304 305 305 303 303 302 301 301 301 299 300 299 298 298 298 298 297 298 298 297 298 299 299
320 325 325 321 316 316 316 316 315 315 316 319 321 321 318 318 318 316 312 311 310 310 311 311 302 295 304 300 291 292 295 296 297 297 298 298 299 300 304 316 314 314 314 314 314 313 312 311 311 311 311 311 311 310 308 308 308 307 306 305 305 305 305 304 303 303 302 301 301 300 300 299 298 299 298 296 296 296 297 297 297 298 298 298 299
324 324 325 323 319 317 317 316 317 317 317 318 321 321 323 323 321 319 318 319 315 312 312 311 312 307 295 291 289 292 293 296 297 297 297 298 299 304 315 313 312 313 313 313 313 313 312 311 311 310 310 309 310 309 309 308 308 306 306 306 305 304 304 303 303 302 301 300 300 300 299 298 298 298 298 297 297 297 296 296 296 298 299 299 299
324 324 323 320 319 319 319 318 318 319 321 322 324 325 324 324 322 321 322 320 318 316 312 312 311 313 315 317 305 296 293 295 296 296 297 298 302 315 315 314 313 313 313 312 312 312 311 310 311 310 310 309 309 309 310 309 308 308 307 306 305 304 304 303 302 302 300 300 299 299 298 297 298 298 297 295 296 297 297 297 297 298 299 299 300
321 322 321 320 321 321 321 319 321 325 326 325 324 324 327 324 324 322 322 321 320 317 312 313 314 312 312 317 324 316 312 300 300 303 305 306 312 315 315 315 315 313 312 312 311 310 309 308 308 308 308 308 307 307 307 307 307 307 307 307 307 305 304 303 302 301 301 299 298 298 298 297 297 297 297 296 296 296 296 297 296 296 298 298 299
319 321 322 322 322 320 321 324 324 324 326 324 322 324 327 324 325 322 320 323 322 318 316 316 316 314 316 318 320 320 318 317 317 316 318 317 317 316 316 315 314 313 313 312 312 310 308 308 309 308 308 307 307 306 305 304 304 303 303 302 302 301 301 300 300 300 298 297 297 297 297 296 297 297 297 296 296 296 296 296 297 297 297 297 297
318 320 322 323 324 322 323 324 325 324 324 321 321 324 327 326 325 322 320 321 319 317 316 316 315 315 316 317 316 315 317 318 319 320 318 317 316 315 316 315 315 314 312 310 309 308 308 307 307 306 306 306 306 305 304 304 304 303 303 302 301 300 300 299 298 297 296 297 297 297 296 296 297 297 297 297 297 296 297 297 297 298 298 297 298
316 322 325 321 320 323 326 325 323 322 323 323 323 322 322 323 323 323 321 321 320 318 317 316 315 316 317 312 305 309 319 321 320 320 320 318 316 315 315 315 314 312 311 310 308 307 306 306 306 306 306 305 306 305 305 305 304 304 303 302 301 300 299 299 299 297 297 297 297 297 296 297 297 297 296 297 298 298 298 298 297 298 298 298 298
317 317 319 323 322 322 322 323 323 326 323 323 320 321 324 323 322 321 322 322 321 318 316 316 314 312 303 299 299 302 316 318 318 318 317 316 314 314 313 312 312 312 310 308 307 306 306 306 306 306 306 306 305 305 305 304 304 303 302 301 301 300 299 298 298 297 296 296 296 296 296 296 297 297 297 298 298 298 297 298 298 298 298 298 299
321 320 322 322 321 322 323 322 321 319 319 319 320 324 324 322 323 323 322 321 319 318 315 314 313 313 311 305 307 307 315 315 315 312 312 311 311 310 310 309 309 309 309 308 308 307 307 307 306 306 306 306 306 306 305 304 303 302 301 300 299 298 298 298 298 297 296 296 296 296 296 296 297 296 297 298 298 298 298 298 298 298 298 298 298
321 323 326 325 323 322 321 319 319 319 318 321 323 323 323 321 321 320 320 319 318 316 314 314 313 312 310 309 308 310 311 310 310 310 310 309 308 308 307 307 307 308 308 308 307 307 307 306 305 305 305 305 305 305 304 304 303 302 302 300 300 298 298 298 297 296 296 295 295 295 295 296 296 296 297 299 298 298 298 298 298 298 298 298 298
316 317 318 318 320 316 317 320 318 320 323 321 319 320 320 318 318 318 318 317 316 314 314 314 314 312 311 311 311 310 310 311 311 310 309 308 308 307 307 307 308 307 307 307 306 306 306 305 304 304 303 303 303 303 303 303 303 302 300 299 297 297 297 297 297 297 297 296 295 295 296 296 296 296 297 298 298 298 298 298 298 298 298 298 298
315 317 318 318 318 316 316 317 321 317 316 315 315 315 315 316 317 318 316 315 315 314 313 313 312 311 311 310 310 310 309 309 308 308 308 307 307 307 307 306 307 307 307 306 306 306 305 305 304 304 303 302 301 301 301 301 301 300 300 299 298 298 298 298 299 298 297 296 296 295 296 296 296 297 298 298 298 298 298 298 299 299 298 298 298
314 315 316 319 316 316 315 317 313 312 313 313 313 314 314 315 316 316 317 315 314 314 312 311 311 310 311 311 309 309 309 308 308 308 307 307 306 306 306 306 306 306 306 306 306 306 306 304 303 303 302 301 301 300 300 300 300 299 299 298 298 298 298 298 298 297 297 297 296 296 295 295 296 296 297 298 298 298 298 298 299 298 298 299 299
313 315 315 316 316 314 315 313 315 316 313 313 313 314 314 315 315 315 315 315 313 312 311 311 310 310 310 309 309 309 308 307 307 307 306 306 305 305 306 306 306 306 306 306 306 306 305 303 303 303 303 302 302 300 300 299 299 298 298 298 297 297 296 295 298 297 297 296 296 296 295 295 295 296 297 298 298 298 298 298 299 299 300 299 299
311 312 314 315 315 314 312 313 316 312 312 312 313 314 314 314 314 314 314 313 312 311 311 310 309 309 309 309 308 308 308 308 306 306 306 305 305 305 305 306 306 306 306 305 305 305 304 303 303 302 302 302 301 301 300 300 299 298 298 298 296 292 289 291 295 297 294 296 296 296 296 296 295 296 297 297 297 298 298 299 299 299 299 299 298
312 314 314 315 316 312 313 313 312 310 311 312 312 312 313 313 313 312 311 311 310 310 310 309 309 309 309 308 308 308 307 307 306 306 305 305 305 304 305 305 305 305 305 304 304 303 303 303 302 302 301 301 300 300 300 300 299 299 299 299 294 291 290 291 293 293 295 296 296 295 295 295 296 296 296 297 297 298 299 299 299 299 299 298 298
315 312 314 314 313 312 311 309 308 309 310 310 311 311 311 311 312 311 310 310 309 309 309 309 309 308 309 308 309 308 307 307 307 306 305 304 304 304 305 304 305 304 303 303 302 302 302 302 302 302 301 301 300 300 299 299 299 299 296 293 291 289 288 289 296 290 289 290 296 296 296 295 295 295 297 297 298 298 300 299 299 299 298 298 298
Wind_Speed
9 9 8 8 8 8 8 7 7 6 6 6 6 6 5 5 6 6 4 5 5 5 5 5 5 5 5 5 5 6 6 6 5 5 5 6 6 6 6 5 6 6 5 6 4 4 4 5 5 5 3 4 3 2 2 1 0 0 3 1 4 2 3 4 5 7 4 1 2 3 4 4 4 1 5 5 6 5 6 4 5 6 5 5 5
9 8 7 8 10 9 9 7 6 6 7 6 6 6 6 5 6 5 6 6 5 5 6 5 5 5 5 6 6 6 6 7 5 5 5 6 6 5 5 6 6 6 5 6 5 4 5 5 5 5 3 4 3 3 2 2 1 2 1 2 4 4 3 4 4 3 9 4 5 3 3 1 5 2 4 7 7 6 7 6 5 5 5 5 5
9 8 7 7 9 8 7 6 6 7 7 6 7 6 6 6 5 6 6 5 4 5 5 5 5 5 6 6 6 6 6 6 4 4 5 7 7 6 6 6 7 7 6 6 7 4 5 5 6 4 3 4 4 3 2 1 2 3 2 2 4 4 3 4 3 4 6 5 1 4 3 3 4 6 6 5 4 4 6 6 6 5 4 5 5
6 7 8 8 7 7 6 6 7 7 7 6 7 6 5 6 5 6 6 4 4 4 5 5 5 6 6 7 7 7 5 1 4 5 7 7 7 8 7 7 6 7 7 7 6 5 6 6 3 7 6 5 5 4 3 1 2 3 3 2 3 4 3 2 2 2 3 5 3 4 4 5 4 5 5 5 6 6 5 5 4 5 5 4 5
4 4 5 6 6 7 7 6 7 7 7 6 7 6 6 5 4 5 5 4 4 4 5 5 6 6 6 8 8 7 7 8 7 8 7 7 8 7 8 7 7 7 7 7 6 6 2 8 3 4 3 3 2 1 1 4 3 4 5 3 2 3 3 3 2 2 5 7 6 2 2 3 2 4 4 6 7 6 5 5 6 6 6 6 5
8 7 4 3 2 2 3 4 5 6 5 5 6 5 5 5 5 4 4 4 3 2 3 4 5 7 8 8 8 8 7 8 9 8 7 7 7 6 7 7 7 6 6 6 6 2 6 7 6 6 5 4 3 2 2 4 3 3 3 3 2 2 2 0 2 3 4 6 6 6 5 7 7 5 4 5 7 9 8 6 5 6 7 8 6
9 8 7 7 5 4 3 3 3 4 4 4 3 3 3 4 4 4 3 3 2 1 2 1 3 5 7 7 8 8 7 6 7 8 8 8 8 7 7 7 7 6 6 6 2 4 5 5 6 5 5 4 3 3 3 4 3 4 3 3 2 2 2 2 3 4 4 5 5 4 6 5 5 7 5 3 4 3 8 9 8 5 3 5 7
8 7 6 6 7 7 7 6 4 3 3 3 3 2 2 2 1 2 3 4 3 2 1 0 2 3 4 5 6 5 5 6 6 7 7 7 6 7 7 6 7 6 5 3 4 4 4 4 4 3 2 2 3 3 2 3 2 3 3 3 3 2 2 2 3 4 4 4 3 5 5 5 6 5 4 4 5 3 4 7 10 9 8 7 4
5 4 6 5 3 3 0 4 6 5 5 5 5 4 4 3 2 2 2 1 0 1 2 4 5 5 4 5 5 4 3 4 3 4 5 6 6 7 7 7 7 7 4 5 4 3 3 2 2 2 4 6 7 5 4 4 4 4 3 2 2 3 3 4 3 3 4 4 4 4 5 4 3 5 6 6 7 8 7 6 8 8 8 9 7
8 4 6 7 6 2 3 3 3 4 2 2 4 6 6 5 4 5 4 3 2 2 3 2 1 2 3 4 5 4 4 4 9 14 11 7 6 4 4 5 4 5 4 6 6 4 3 3 1 3 2 3 4 3 4 3 0 4 3 2 2 3 4 3 3 3 3 3 4 4 5 5 5 5 5 6 6 6 7 8 9 8 8 8 5
8 9 9 8 7 6 5 3 3 3 3 4 4 5 5 5 5 4 3 3 3 3 2 1 2 4 4 4 4 3 4 5 12 8 10 12 8 5 4 4 7 6 5 3 4 2 2 4 3 5 5 7 8 9 6 4 3 1 3 3 2 2 3 3 3 4 3 3 3 4 4 5 6 7 7 9 8 9 8 7 8 8 8 9 9
6 6 7 8 7 4 3 3 4 6 6 4 5 2 3 4 4 3 1 2 3 2 2 3 4 5 5 5 5 5 5 10 9 8 8 8 7 5 5 5 5 6 5 5 3 3 2 4 2 2 4 5 3 3 4 7 6 10 14 14 14 14 12 7 4 3 3 3 5 6 5 6 7 8 9 9 9 8 7 7 7 8 9 9 8
5 6 6 5 4 4 3 3 5 7 8 8 6 3 4 4 3 2 2 3 3 2 2 5 5 4 5 5 5 5 4 10 10 8 6 6 7 5 3 3 4 4 5 4 4 5 4 3 3 3 3 8 5 3 3 5 10 14 13 13 13 14 12 13 13 8 4 4 5 7 8 6 7 7 7 8 8 7 8 7 7 6 6 6 7
6 7 5 5 7 8 8 7 6 3 3 7 6 5 4 4 5 5 4 3 4 4 4 5 4 5 5 5 4 3 3 9 10 8 6 6 2 1 4 5 6 6 5 3 4 4 4 4 4 5 6 7 6 6 5 5 5 6 7 7 9 12 14 15 15 15 12 8 7 7 7 6 6 7 8 7 7 7 7 7 7 7 6 6 7
7 8 8 6 5 4 6 8 5 4 6 5 5 5 6 5 5 4 4 4 4 4 4 5 4 5 6 5 4 3 4 11 10 8 7 6 4 2 5 6 7 6 6 6 6 6 6 7 8 7 7 7 9 8 6 5 6 6 8 10 9 9 10 9 8 7 8 7 7 7 6 6 6 6 7 7 6 5 5 6 5 5 5 2 7
7 6 7 6 5 6 6 7 7 7 5 4 5 6 6 5 4 5 6 5 5 5 5 6 6 5 4 3 3 3 3 9 8 9 9 8 4 2 4 5 6 8 9 8 7 6 6 6 6 6 6 6 10 13 10 6 7 8 9 8 8 9 9 8 9 12 11 10 9 8 6 6 7 8 8 8 8 7 5 4 7 10 7 7 7
3 2 3 6 5 4 4 4 5 6 4 5 5 5 6 6 6 6 7 5 5 6 6 7 5 4 4 3 4 3 5 9 10 10 9 8 7 7 8 9 8 6 9 9 9 7 6 5 5 6 8 7 9 12 11 10 6 6 5 7 7 7 7 6 9 11 12 12 13 12 12 12 12 13 14 14 12 8 7 11 10 8 8 7 6
2 3 3 7 5 3 4 5 4 5 5 6 7 7 7 7 7 6 8 7 6 5 5 6 6 5 5 5 5 6 6 10 12 11 10 9 8 9 9 8 7 3 2 10 7 7 7 12 8 6 7 6 6 8 6 4 4 4 5 8 9 8 5 4 4 6 11 12 13 13 13 13 13 13 14 15 15 12 9 9 6 4 7 7 6
4 4 5 4 5 6 5 4 5 6 6 6 7 7 7 8 8 8 7 7 7 6 5 6 6 5 5 7 12 9 7 8 12 11 11 10 8 7 8 9 9 7 7 9 6 5 6 9 13 10 8 7 9 8 8 6 6 7 7 8 7 7 5 5 6 8 8 9 9 9 10 11 10 9 11 17 17 14 10 9 7 7 8 9 9
6 5 6 6 6 7 7 7 7 7 7 5 7 8 7 8 8 9 8 7 7 6 6 6 7 7 6 6 6 6 7 7 10 13 13 14 12 9 7 10 8 6 7 8 7 7 6 8 11 14 13 13 13 12 11 10 8 6 6 8 8 8 4 7 9 7 8 8 7 8 8 8 8 9 10 10 11 12 10 8 9 9 8 8 8
7 7 6 7 8 8 8 7 9 7 6 7 8 7 7 8 8 8 8 7 7 7 8 7 7 6 5 6 6 7 7 7 9 13 12 12 12 9 7 7 6 7 8 8 7 7 7 8 7 12 15 16 15 15 14 13 12 10 9 9 8 7 7 8 9 11 8 8 8 8 8 8 9 9 9 9 10 10 10 10 9 9 9 8 6
7 7 8 9 9 8 8 7 7 7 7 7 8 8 7 8 7 7 6 7 9 9 7 6 6 6 6 6 7 6 9 13 6 11 12 11 10 9 5 5 5 8 9 8 8 8 8 7 6 10 16 16 16 16 16 15 14 9 9 11 11 11 8 7 6 7 7 7 8 9 9 9 9 9 10 10 10 10 10 10 10 9 8 8 7
8 9 9 9 9 8 8 9 7 6 7 7 8 8 7 8 7 7 7 7 7 7 6 4 5 6 6 6 6 7 7 8 13 9 10 10 10 10 10 8 9 10 11 10 9 8 7 8 9 15 17 17 17 17 16 17 12 10 14 14 12 11 9 7 8 8 8 8 9 9 9 9 9 9 10 9 9 9 8 8 9 8 8 7 7
9 9 8 8 9 9 8 9 8 7 8 8 9 9 8 7 7 5 5 6 6 6 5 4 5 6 6 6 6 6 6 5 9 12 9 11 12 13 13 13 13 10 9 8 7 7 7 7 8 15 16 17 17 17 17 14 12 15 14 14 14 12 8 8 8 8 8 9 9 9 9 9 9 9 9 8 8 8 8 8 8 8 8 7 7
8 8 9 8 8 8 8 8 7 6 6 7 8 7 7 7 6 4 5 6 6 6 5 5 5 5 5 5 5 5 5 5 6 9 14 14 14 16 16 16 14 15 12 8 8 7 9 12 14 14 14 14 15 14 14 15 17 16 16 15 14 8 8 8 8 8 8 8 8 8 8 8 8 7 7 7 7 7 7 7 7 8 8 7 5
8 7 6 6 6 6 7 7 7 7 7 5 5 5 6 5 6 5 5 6 5 5 5 5 5 5 5 4 4 4 4 5 6 6 7 12 13 15 16 17 18 17 14 10 11 12 13 14 14 14 13 11 9 9 9 11 16 16 16 14 9 8 8 8 7 8 8 7 8 8 7 7 7 7 7 7 8 10 9 9 9 9 8 8 7
7 7 7 7 6 7 8 6 6 6 6 5 5 5 5 5 6 5 5 5 5 5 5 5 5 5 5 4 4 4 5 5 4 4 5 6 7 9 11 12 15 13 10 9 10 10 12 12 11 12 12 15 15 14 12 12 10 9 8 8 8 8 8 8 7 7 7 7 7 7 7 6 6 7 8 9 9 8 9 8 8 8 8 8 6
6 6 6 5 5 5 6 9 8 6 6 6 5 5 5 5 6 5 4 4 5 5 5 5 5 4 4 4 5 5 5 4 4 5 4 5 6 6 6 6 6 6 7 6 7 8 8 8 9 7 8 8 8 7 7 7 8 8 8 7 8 8 10 13 10 7 7 6 5 5 6 7 8 8 7 7 8 8 8 8 7 7 7 7 6
7 6 5 5 5 5 5 5 5 6 6 6 7 7 5 4 4 6 5 3 3 3 5 4 4 3 4 4 5 6 5 4 2 2 2 4 3 7 7 6 6 6 7 9 8 6 6 7 6 7 6 7 7 7 6 7 7 7 8 7 6 6 6 6 7 7 6 6 6 6 6 6 7 7 7 6 7 8 8 7 7 7 6 5 5
6 6 5 5 5 5 5 5 4 5 5 6 6 7 11 12 7 4 4 8 10 9 6 4 3 3 5 4 4 4 5 3 3 2 1 2 7 10 9 10 9 9 9 10 7 7 6 7 6 6 6 5 6 6 6 6 6 6 6 6 6 6 6 6 5 5 5 6 5 6 6 6 6 7 7 7 7 7 7 7 8 7 7 7 7
6 5 5 5 5 5 5 6 4 5 5 5 6 7 6 8 12 12 10 10 10 12 13 11 9 7 5 4 6 10 8 6 4 3 5 8 12 13 13 13 12 11 10 9 6 6 6 6 6 5 5 5 6 6 5 5 5 5 5 5 5 6 6 5 5 4 5 5 5 5 5 5 6 6 7 8 8 8 8 7 7 7 7 7 7
7 6 6 5 6 5 5 5 5 6 5 5 6 7 7 8 7 10 11 10 11 12 11 10 10 9 8 6 4 4 6 5 7 9 9 11 12 12 11 11 10 10 7 13 8 5 5 6 5 5 4 5 5 5 5 5 5 4 4 5 5 5 5 5 4 4 4 5 5 5 6 6 6 7 7 8 9 8 8 8 8 8 8 7 7
8 7 6 6 6 7 6 5 5 6 7 6 5 5 6 7 8 7 7 10 10 11 11 10 9 9 10 11 10 7 7 7 9 10 11 12 13 13 12 10 9 8 12 9 6 5 5 5 5 4 4 5 4 5 5 5 5 5 4 4 4 4 4 3 2 4 5 5 4 5 5 5 5 6 6 7 8 8 8 8 8 7 8 8 8
7 7 6 6 7 6 6 6 6 5 5 5 5 5 4 5 6 7 8 6 7 8 8 9 8 9 10 9 8 6 6 8 9 10 10 10 11 11 12 9 12 11 9 6 6 5 4 5 4 4 4 4 4 4 4 4 4 5 4 4 3 3 3 2 3 4 4 4 4 5 5 5 6 6 7 7 7 7 7 7 8 9 9 9 8
6 7 11 7 6 6 5 5 5 5 4 4 4 5 5 5 4 5 6 6 6 6 5 4 6 7 5 5 6 7 7 7 8 8 10 11 11 10 10 8 7 6 6 5 5 4 5 4 4 3 3 4 4 4 4 4 4 3 3 3 2 2 2 3 4 3 4 4 4 5 6 6 6 7 7 7 8 8 8 8 8 9 9 9 9
5 5 5 6 5 5 5 5 5 5 5 4 4 4 4 4 5 5 4 5 5 5 4 3 2 2 5 6 5 6 7 7 8 8 7 6 4 5 7 5 5 4 5 4 4 4 4 4 4 4 4 4 3 3 3 3 3 3 2 3 3 2 2 3 3 3 3 4 5 5 5 6 6 7 6 7 7 8 8 9 9 9 9 9 9
5 5 5 5 5 5 4 4 4 4 3 3 3 3 4 4 4 4 4 4 4 3 5 5 4 4 3 3 5 6 4 6 7 6 4 4 3 4 4 5 5 5 5 4 4 4 4 3 3 3 3 4 3 3 3 3 3 3 3 3 3 3 3 3 3 3 3 4 4 5 6 6 6 6 7 7 7 7 8 9 9 9 9 11 10
6 6 5 5 5 5 5 4 4 5 4 3 3 3 3 4 4 4 4 4 4 5 6 5 4 5 5 3 2 3 5 6 8 6 3 4 5 4 4 5 5 5 5 4 3 3 4 3 2 3 3 3 3 2 3 3 3 3 3 3 3 4 5 3 4 3 4 4 4 5 5 5 5 6 6 6 7 8 8 9 9 9 9 9 9
5 6 7 7 5 5 5 4 4 4 3 3 3 3 4 4 4 4 3 3 4 3 4 4 4 4 5 3 4 5 6 4 3 3 2 2 2 3 4 4 5 4 4 4 4 4 4 3 3 3 4 3 3 3 3 3 3 3 2 2 2 2 2 2 3 3 4 4 4 4 4 4 5 5 6 6 8 8 8 8 8 9 9 9 8
6 5 6 8 6 6 4 5 4 5 5 5 4 3 3 4 4 5 4 4 4 3 4 4 4 4 4 3 4 4 4 3 3 3 3 3 3 3 4 5 5 5 5 4 4 4 4 4 3 4 4 4 3 3 3 3 2 2 2 2 1 1 1 2 3 3 4 4 4 4 4 5 5 5 5 7 8 8 7 8 8 8 8 8 8
5 5 5 4 5 5 4 4 4 4 4 4 4 4 4 4 4 4 5 4 4 4 4 4 4 3 2 1 2 5 5 4 3 2 2 3 3 4 4 4 5 4 4 4 4 4 4 4 3 3 3 3 3 3 3 2 2 2 2 1 1 1 1 2 3 3 4 4 4 4 4 5 5 6 7 7 8 7 8 8 8 8 8 9 9
5 5 6 4 5 5 5 5 4 4 4 5 5 5 5 4 4 5 5 5 4 4 4 3 3 2 2 4 4 6 5 3 2 3 3 3 3 3 3 3 3 3 4 4 4 4 4 4 3 3 3 3 3 3 2 2 2 2 2 1 1 1 2 3 3 4 4 5 4 5 5 5 6 6 5 7 7 6 8 8 8 8 8 9 9
6 5 4 4 4 4 4 4 5 5 5 5 4 4 4 5 5 5 6 5 5 5 5 4 3 3 3 4 6 8 5 4 4 4 4 4 4 4 4 4 4 4 4 4 3 4 4 4 4 3 3 2 2 2 2 2 2 2 2 1 2 3 3 4 4 4 4 5 5 5 5 5 5 5 5 7 6 5 7 8 8 8 9 9 9
5 4 4 5 4 4 4 5 5 5 5 5 4 4 4 4 4 4 5 5 5 5 5 4 4 4 4 4 6 6 4 4 4 4 5 4 4 4 4 4 4 4 4 4 4 4 4 4 4 3 3 2 2 3 3 2 2 2 2 2 3 4 4 4 4 4 4 5 5 5 5 5 5 4 5 6 7 8 8 8 8 8 9 9 9
5 5 5 5 5 5 4 4 5 5 5 5 4 4 3 4 4 4 5 5 6 5 4 4 5 5 5 4 4 5 5 5 5 5 4 4 4 4 4 4 4 5 4 4 4 4 4 4 4 4 4 3 3 3 3 2 2 2 2 3 4 4 3 3 3 3 3 4 4 5 5 4 4 4 5 6 8 8 7 8 7 8 9 9 9
4 5 5 5 5 5 5 5 4 5 5 5 5 4 4 4 4 5 5 6 6 5 5 4 4 4 5 5 4 5 5 5 4 4 4 4 4 4 4 4 4 4 4 4 4 3 3 4 4 3 4 3 3 2 2 2 2 2 2 3 3 3 2 2 2 2 3 3 4 4 4 4 4 4 6 6 5 7 7 7 7 8 8 9 9
5 4 4 5 5 5 5 5 5 5 5 5 5 5 5 5 5 5 5 6 6 5 5 5 5 5 4 4 5 5 5 5 5 4 4 5 4 4 4 4 4 4 4 3 3 3 4 3 3 3 3 3 3 3 2 2 2 2 2 2 2 2 2 2 2 2 2 3 3 3 3 4 4 4 5 5 5 7 7 7 8 8 9 9 9
5 5 5 5 5 6 6 6 6 5 5 5 5 5 5 6 7 6 5 5 5 5 5 4 4 4 4 4 4 4 4 4 4 4 4 4 4 4 4 4 4 4 4 4 3 3 3 3 3 3 3 3 3 2 2 1 1 2 2 1 1 1 2 1 2 2 2 2 2 3 3 4 4 4 4 5 5 6 7 7 8 8 8 9 8
5 5 5 5 6 6 7 6 6 7 7 6 6 5 5 5 6 5 5 5 5 5 5 5 4 4 4 4 4 4 4 4 4 4 4 4 4 3 3 3 4 4 4 3 3 3 3 3 3 2 2 2 2 2 2 2 1 1 1 1 1 2 2 3 2 2 1 2 2 3 3 4 4 5 4 4 5 5 6 7 8 8 8 10 9
5 5 5 6 6 6 6 7 7 6 6 7 7 7 5 5 5 5 5 5 4 4 4 4 5 5 5 5 5 5 5 5 4 4 4 4 3 3 3 4 4 3 3 3 3 3 3 3 3 3 3 2 2 2 2 1 1 1 1 1 1 0 1 2 2 2 2 2 3 3 4 4 4 4 4 4 4 5 7 8 8 9 9 10 10
5 5 5 6 6 6 6 6 6 7 7 7 7 8 7 7 6 6 6 6 6 5 5 5 5 5 4 5 5 5 5 4 4 4 4 4 4 4 4 4 4 3 3 3 3 3 3 3 3 3 3 3 2 2 2 1 1 1 2 3 3 2 1 1 1 2 3 2 3 4 4 5 5 5 4 4 5 6 8 8 8 8 8 8 9
Wind_Direction
195 201 190 195 187 189 190 188 190 183 179 181 185 192 190 195 198 208 198 217 212 218 222 227 229 226 225 225 228 234 231 235 220 210 210 217 219 224 223 203 218 232 229 243 234 230 229 239 249 244 223 234 239 264 274 256 199 176 133 268 285 256 233 238 261 277 282 205 277 296 315 314 318 16 344 344 340 342 333 323 323 327 325 330 328
199 199 193 192 197 196 194 188 187 188 189 189 194 191 194 196 201 194 205 216 200 214 221 228 223 224 232 234 236 235 235 235 220 205 213 217 226 216 222 216 222 235 224 240 234 222 219 234 243 238 204 224 235 235 220 218 227 267 103 249 256 261 216 239 250 260 290 317 302 306 311 12 323 356 358 338 336 331 332 329 330 333 332 331 332
198 189 190 194 203 204 191 187 183 188 199 205 207 202 200 201 197 202 213 222 206 207 219 223 237 235 236 243 240 240 237 236 241 229 223 218 226 225 222 218 219 232 233 233 238 224 222 225 241 228 206 227 229 227 221 280 340 318 297 237 263 259 236 219 245 273 287 301 302 313 328 339 325 324 332 328 313 317 319 331 336 336 339 336 337
187 182 187 195 193 186 192 192 187 191 201 208 212 217 214 211 204 207 214 217 222 221 219 230 234 233 235 244 238 238 229 146 257 235 242 241 231 234 231 224 222 227 231 237 234 228 227 229 335 8 352 317 324 349 15 16 334 327 300 279 268 289 293 274 236 293 304 299 304 313 324 325 317 314 318 318 330 332 330 318 326 337 339 343 344
149 184 194 191 183 187 196 190 196 201 210 206 211 205 209 216 217 221 218 217 221 225 242 235 243 238 234 233 240 230 216 210 218 231 233 232 235 236 239 234 228 229 232 236 239 223 195 59 63 228 232 255 273 309 344 348 345 321 312 316 308 320 1 41 21 253 275 288 297 282 300 291 284 309 322 334 334 328 331 338 343 342 344 345 345
136 129 100 82 32 308 244 209 208 213 215 218 219 214 206 207 212 228 232 247 267 283 291 293 267 252 239 240 238 238 216 217 232 239 232 225 226 234 238 235 235 234 236 231 233 80 104 157 192 206 204 199 228 207 212 223 219 237 264 272 289 326 22 104 245 241 245 267 285 309 325 329 325 322 326 333 335 336 336 339 341 357 348 341 340
132 125 125 125 131 140 156 186 203 202 203 201 191 182 194 186 174 143 117 122 117 96 81 3 298 276 270 258 247 243 236 215 220 223 226 226 223 227 233 232 232 231 231 237 135 157 172 177 188 187 188 192 197 207 221 256 269 278 284 292 315 343 358 6 319 298 294 302 308 305 316 317 309 319 331 327 319 316 339 338 333 341 340 335 326
105 116 143 173 172 154 149 150 144 146 142 135 122 102 78 66 84 123 155 164 189 187 198 143 342 4 334 315 299 288 267 244 230 232 232 231 229 229 232 230 231 228 225 167 168 154 169 183 187 181 157 174 210 228 236 253 263 280 288 295 312 329 342 322 308 296 291 300 297 313 315 316 316 312 314 329 340 333 358 335 324 326 329 330 315
43 110 156 173 70 29 351 155 151 153 156 164 163 163 160 150 161 192 254 316 355 354 2 5 17 19 21 14 351 356 356 348 351 330 284 263 240 242 234 232 228 228 174 157 145 143 162 167 135 168 203 213 216 228 232 256 262 278 288 303 316 324 317 308 296 296 309 317 317 319 314 312 342 352 347 353 351 335 327 321 313 313 321 320 321
132 91 60 52 68 107 279 321 1 10 358 195 181 177 177 168 159 176 179 164 181 52 54 71 118 85 85 54 38 16 17 17 360 355 355 340 304 282 294 277 307 337 25 35 40 36 82 120 203 179 162 81 60 76 63 46 130 224 244 267 315 310 311 314 326 328 328 329 341 0 359 347 358 358 337 344 332 325 324 328 321 326 320 318 313
126 139 135 142 148 180 189 155 121 150 248 281 228 199 166 148 150 146 136 154 144 112 103 311 26 53 33 43 47 37 24 10 360 356 359 359 360 352 333 18 72 79 91 134 145 145 351 2 43 68 68 53 44 39 40 35 37 326 308 318 330 351 328 325 329 6 12 6 11 18 9 346 354 353 352 345 344 338 329 322 322 322 328 329 331
143 141 143 156 171 166 139 150 182 183 174 207 276 265 113 99 84 96 89 40 34 24 15 53 52 52 62 56 48 31 20 354 349 353 2 357 358 28 68 94 118 140 130 126 119 124 214 206 136 83 97 110 108 76 53 53 63 71 77 71 61 56 59 53 37 33 15 28 36 34 17 10 5 12 355 348 340 326 325 322 323 328 328 330 322
122 132 150 145 118 117 122 193 212 192 175 164 176 178 125 126 122 90 49 53 64 37 54 49 41 41 51 57 48 33 2 345 337 346 353 1 7 29 107 130 102 107 115 127 154 181 188 124 87 45 39 55 54 43 56 66 79 74 73 75 73 68 60 51 46 48 43 44 48 47 32 22 26 10 354 344 329 328 332 329 329 328 345 338 17
134 140 144 150 154 163 169 187 217 248 178 160 153 136 118 93 89 96 108 104 87 72 61 72 69 63 66 68 59 28 3 347 330 333 347 351 11 72 103 102 107 122 114 113 119 112 95 89 63 41 29 33 26 26 37 68 66 65 60 59 63 57 57 57 58 55 56 56 58 56 40 31 38 8 359 351 354 342 335 334 354 353 340 8 56
162 152 154 162 154 164 175 183 182 202 221 196 133 128 132 148 131 97 88 98 102 100 90 88 80 62 58 60 61 19 7 349 339 332 347 340 328 132 130 129 120 91 79 81 80 70 68 71 69 60 42 28 34 42 41 37 61 63 64 62 60 61 58 54 56 58 61 60 64 65 52 43 38 21 5 5 4 350 333 1 338 332 320 43 65
147 154 155 146 163 192 206 181 171 190 207 176 141 131 139 141 128 114 103 107 119 122 104 88 72 67 70 87 107 61 2 7 359 1 3 359 9 89 88 91 83 98 95 91 85 80 78 75 76 76 65 56 48 50 54 48 54 62 64 63 66 67 65 55 63 72 73 71 67 63 55 43 35 26 22 18 16 8 2 11 27 20 13 42 44
83 103 154 147 170 193 232 220 186 164 153 126 112 112 108 104 99 106 100 89 80 71 73 71 74 71 60 63 69 52 22 9 10 20 19 26 58 68 63 60 49 36 102 93 79 68 61 82 104 92 78 70 67 68 63 71 74 73 84 79 75 69 70 65 58 61 65 65 59 51 44 37 30 27 24 28 31 13 23 38 22 2 28 32 27
113 137 198 149 144 138 183 204 182 116 103 96 96 90 86 94 107 110 113 109 89 75 69 72 66 66 68 66 61 62 39 19 13 15 34 42 92 100 109 108 102 56 24 83 79 83 95 93 76 69 73 62 49 55 51 77 85 97 91 83 74 70 60 46 56 59 60 61 57 51 42 36 31 28 27 26 32 32 38 46 358 356 39 32 20
131 128 134 119 119 126 132 107 82 83 84 88 95 96 94 99 104 96 95 96 94 91 89 84 83 64 51 58 56 52 38 26 20 22 40 60 77 83 88 91 85 81 76 75 69 64 50 60 61 68 74 67 60 55 63 80 81 77 80 83 84 80 71 58 57 58 50 48 40 41 34 30 30 28 26 29 32 33 36 38 23 29 38 36 30
108 96 90 91 92 90 90 84 79 81 84 80 88 92 98 94 95 99 94 96 102 96 89 81 72 58 47 49 56 54 49 35 27 31 37 45 65 81 84 94 95 95 86 90 91 77 62 64 60 62 64 67 66 64 59 59 73 74 78 80 84 78 67 72 68 66 61 58 52 44 40 29 28 28 25 23 25 26 25 26 34 35 36 36 39
88 89 88 87 84 82 83 85 87 76 78 87 90 86 87 97 97 95 98 96 96 92 87 83 75 62 51 48 45 43 48 43 32 34 38 48 60 77 85 91 99 93 94 95 88 83 71 66 64 62 68 65 62 59 59 57 64 67 65 72 68 68 64 68 65 65 63 54 49 42 35 31 28 26 22 18 19 18 20 20 23 33 35 39 37
80 79 78 81 82 83 83 76 74 82 82 85 86 82 78 82 85 89 92 97 95 89 87 87 86 73 56 47 46 38 37 45 40 35 38 44 48 62 85 84 91 105 93 89 82 75 72 66 60 63 67 66 64 62 59 58 57 62 57 60 56 60 67 67 62 56 55 51 48 44 38 34 31 25 21 20 16 16 20 20 19 23 30 40 42
77 76 74 71 72 70 69 75 75 75 78 75 81 81 81 82 83 87 94 90 85 82 74 65 68 64 54 42 33 29 28 38 39 40 38 47 54 56 60 71 69 91 95 89 85 83 75 77 76 72 70 67 64 60 58 58 57 53 54 51 51 54 58 53 54 51 49 46 44 42 36 32 31 26 22 16 9 10 17 14 15 17 21 26 32
78 76 72 73 76 78 80 81 83 82 88 87 84 91 85 82 80 77 80 82 81 77 63 58 59 56 55 46 38 32 26 17 27 37 45 55 67 72 75 79 88 89 86 90 86 88 85 75 80 77 74 71 68 65 60 58 58 53 53 54 54 52 51 53 46 47 47 43 41 36 34 29 30 27 23 12 8 3 10 11 5 9 10 9 16
81 83 86 87 88 89 84 85 79 75 81 93 98 98 95 98 92 79 84 79 79 81 68 67 69 70 62 57 45 37 28 31 32 25 56 76 80 86 88 87 87 92 90 88 85 81 90 90 80 73 71 68 68 67 61 53 53 55 53 52 53 47 48 48 49 45 46 41 40 36 33 31 31 27 17 14 9 8 13 15 6 7 3 1 11
83 82 83 79 82 84 81 70 66 67 69 64 76 83 99 102 100 95 84 83 85 89 94 86 81 76 73 67 58 51 40 42 40 31 44 84 85 85 88 90 89 86 88 90 94 91 83 76 72 69 64 61 61 59 62 60 56 56 57 57 53 51 46 49 48 52 50 47 43 40 30 23 24 22 17 14 18 16 4 4 357 2 2 0 354
85 80 78 72 64 73 76 75 67 58 56 61 60 57 59 82 87 83 84 90 86 89 88 87 84 76 73 65 63 52 51 45 35 36 20 63 78 92 94 95 97 97 94 93 89 83 79 76 78 75 73 67 67 65 63 59 55 50 47 47 54 58 57 54 52 54 52 48 44 36 30 20 16 19 20 17 19 13 7 2 359 355 355 350 342
88 83 74 68 65 59 70 75 74 59 40 39 39 36 34 43 58 48 45 53 99 100 94 88 86 90 85 79 72 67 63 58 41 26 34 61 84 77 86 86 84 93 96 88 81 83 83 80 74 73 72 66 64 64 61 58 59 59 54 51 51 54 62 67 65 60 55 54 52 42 31 23 25 19 15 20 17 9 2 3 359 347 352 344 348
88 80 72 73 68 66 61 64 76 83 77 65 59 47 24 15 66 79 55 34 19 78 107 91 86 66 78 63 80 86 72 74 74 352 5 347 51 114 105 102 102 86 85 99 97 80 77 73 72 68 66 73 71 66 66 65 62 58 59 57 58 56 51 46 56 54 48 45 44 38 33 26 24 15 10 11 14 3 354 354 353 347 340 343 347
94 83 76 86 88 85 80 76 79 83 90 91 91 67 49 50 31 60 63 40 54 51 68 95 100 109 89 52 18 86 101 110 60 41 350 43 62 79 86 88 97 106 95 84 90 89 78 80 72 76 73 75 76 73 71 68 68 60 55 51 55 56 54 53 53 54 54 53 46 43 34 26 22 14 7 4 358 360 351 358 352 344 345 349 346
109 110 105 101 109 108 107 101 89 89 92 106 101 104 96 52 44 45 64 75 70 71 71 68 63 50 79 114 64 61 71 74 69 92 101 95 92 93 96 99 99 105 114 99 63 76 90 82 82 77 80 77 76 75 73 74 71 70 62 53 50 53 53 52 39 47 54 54 50 45 36 30 20 11 9 1 357 350 349 354 357 349 351 346 347
129 130 122 115 113 110 113 113 111 103 96 100 108 114 106 98 67 42 43 53 60 68 72 69 64 63 52 65 108 82 67 70 93 104 106 97 93 89 82 83 89 91 93 97 88 77 77 89 85 80 77 75 73 74 73 74 69 69 70 68 54 45 48 53 28 45 54 49 42 37 29 24 19 14 9 2 356 351 349 352 356 354 350 348 350
124 127 125 125 125 127 124 125 119 121 124 115 107 109 111 111 103 86 48 48 65 73 68 66 68 65 69 60 55 87 113 111 108 108 108 105 99 96 89 77 81 99 85 71 95 88 81 81 84 77 76 81 77 76 75 73 76 72 64 70 69 56 54 43 16 58 53 48 39 40 31 24 20 14 11 2 357 353 351 353 352 349 349 351 353
125 128 131 130 127 124 125 121 118 113 110 115 118 109 101 104 116 118 112 102 69 59 58 58 62 74 64 63 69 71 95 115 113 113 109 107 107 100 94 81 66 45 78 106 96 103 97 93 87 86 84 84 84 89 89 91 90 96 93 90 94 88 74 53 58 54 51 39 35 30 27 22 15 10 4 359 355 353 354 356 355 355 356 355 349
119 128 129 128 127 128 126 122 119 117 122 125 121 118 118 119 116 112 117 116 115 110 105 65 45 43 74 75 61 76 98 113 116 115 111 108 105 110 101 83 68 57 57 66 87 97 101 96 96 86 87 89 92 97 101 106 108 109 113 114 113 102 86 64 60 50 37 27 28 26 21 16 14 9 360 356 356 358 357 356 356 356 353 352 350
124 124 129 128 122 123 125 131 130 136 142 137 135 125 127 127 123 120 118 113 118 126 118 72 38 50 83 77 77 83 97 117 124 117 106 81 52 59 86 88 91 83 89 82 91 93 95 100 102 100 98 100 104 103 107 108 111 113 122 119 106 88 76 65 56 46 33 27 24 16 14 18 9 359 357 356 360 359 356 355 354 352 352 351 348
131 136 141 143 142 131 131 132 133 150 145 152 140 130 120 120 120 125 121 131 132 130 121 121 120 77 48 81 92 68 91 123 127 109 69 32 51 84 107 114 117 110 106 113 111 111 102 103 107 113 111 107 97 100 98 98 104 103 94 76 77 73 66 60 50 37 23 22 19 17 16 12 2 360 359 357 355 358 356 355 354 353 352 350 349
151 155 161 159 144 135 140 148 161 160 156 155 146 146 140 137 141 141 141 142 150 137 132 140 127 125 130 135 159 134 97 100 93 79 68 58 57 81 97 109 112 119 118 116 115 115 108 97 101 105 104 95 99 91 89 77 56 52 62 65 61 60 65 59 48 30 27 15 18 15 9 6 2 357 359 0 1 358 0 360 356 353 352 351 351
127 132 139 142 142 150 154 141 140 158 158 144 162 169 165 165 154 146 156 158 147 141 122 118 123 133 154 156 111 127 118 111 137 148 106 81 83 96 112 115 117 114 119 118 118 112 111 108 100 89 81 81 82 74 74 81 72 71 64 78 74 58 43 30 31 19 18 15 14 13 9 3 360 1 359 6 9 4 359 356 356 357 352 351 348
125 124 129 130 129 141 147 146 143 146 150 153 161 165 153 165 165 159 161 157 137 144 132 134 141 151 164 166 148 131 122 124 140 145 139 127 123 121 131 135 136 135 133 127 122 121 111 100 89 92 93 93 100 99 96 105 113 113 111 83 83 61 40 28 23 24 18 15 17 12 8 1 0 2 359 16 13 3 354 356 356 353 350 348 340
129 131 121 115 127 123 127 127 140 145 144 137 141 143 147 143 145 148 153 152 141 140 129 132 136 151 112 96 126 140 137 144 144 156 141 129 126 130 131 134 133 126 122 114 105 97 103 112 108 104 97 101 104 109 118 118 116 113 102 106 97 70 50 39 32 29 22 20 16 12 5 1 2 3 8 9 3 356 357 356 355 352 348 348 342
124 120 116 122 128 129 132 128 131 135 133 137 142 146 137 132 133 138 140 138 135 130 130 127 118 103 67 102 111 119 112 99 96 95 92 98 102 97 101 94 92 99 108 107 116 120 116 107 108 111 116 120 122 119 122 113 111 115 122 110 59 46 38 38 35 33 24 18 12 9 4 3 1 0 351 359 359 352 358 356 354 349 349 344 342
126 123 122 116 122 131 140 139 129 127 132 134 144 131 120 122 128 128 132 131 127 132 133 130 127 118 102 98 111 99 90 100 100 98 96 95 93 89 91 94 103 111 117 125 127 119 115 117 119 117 122 129 136 138 132 132 132 135 123 109 78 55 42 38 35 28 23 16 13 7 0 357 355 354 350 2 347 341 352 352 349 348 346 345 342
119 117 114 108 112 99 114 126 133 136 140 141 124 99 98 104 105 111 118 122 127 130 131 126 129 116 106 84 80 82 89 93 100 103 108 106 116 127 134 139 134 127 121 120 124 127 123 118 116 110 103 104 108 108 118 125 143 128 97 65 51 49 43 39 36 25 18 14 8 1 355 353 354 346 344 345 350 351 351 351 347 345 345 345 344
117 117 116 115 110 118 117 118 128 131 126 109 91 93 104 114 114 121 124 124 127 126 123 124 125 120 109 97 97 104 115 118 122 126 130 135 133 131 129 130 131 127 125 125 126 127 122 120 123 126 124 114 103 109 108 110 106 93 76 68 65 51 44 42 41 28 24 16 5 354 350 345 344 340 337 345 353 349 347 346 344 342 344 345 340
124 123 119 126 129 123 125 121 122 122 126 128 125 112 110 112 127 131 131 131 134 130 127 122 119 116 118 117 115 116 122 125 126 131 132 131 131 133 137 133 130 130 130 134 136 128 125 129 130 128 125 127 124 115 107 103 91 81 67 66 69 69 62 59 35 33 27 17 1 352 339 337 332 334 340 341 336 346 341 339 340 343 342 339 338
136 142 146 142 151 151 142 133 123 129 124 124 126 130 125 131 137 132 131 134 133 130 131 134 132 127 125 129 133 134 136 138 142 141 141 143 140 139 139 135 129 125 123 121 121 124 122 120 121 120 126 131 128 123 117 107 95 83 79 74 76 71 64 43 45 31 22 13 356 341 338 326 326 327 332 336 335 344 340 340 341 341 341 340 338
160 156 163 160 155 154 149 143 147 144 135 139 136 135 133 139 143 143 137 133 130 131 130 126 125 126 127 129 135 135 135 136 136 138 143 143 144 139 137 137 135 130 124 118 115 118 122 125 130 133 136 140 141 141 141 141 111 94 91 94 79 71 67 59 53 45 21 353 340 331 327 322 319 321 322 327 328 339 337 338 339 342 338 343 339
160 166 166 161 163 162 158 155 154 153 155 148 138 135 139 137 135 137 133 135 137 141 139 136 132 132 132 138 139 139 136 137 141 145 146 141 139 139 139 135 128 129 131 127 130 129 129 134 141 151 149 149 151 153 167 169 152 133 132 122 141 140 93 58 38 38 6 323 328 326 319 313 314 316 316 316 316 326 328 328 335 338 340 347 343
172 178 173 172 169 171 168 160 157 152 152 148 141 139 141 139 140 138 136 134 131 133 142 144 147 152 150 147 150 152 153 153 156 154 147 146 143 139 139 133 133 139 135 142 143 142 141 150 157 165 169 171 167 172 177 168 148 167 204 202 193 100 65 50 47 46 6 340 334 330 321 313 311 311 307 309 305 317 326 333 343 343 343 340 339
169 176 177 168 158 156 153 147 144 152 152 149 145 145 148 154 154 150 150 152 155 158 159 159 154 154 161 161 157 157 160 160 157 155 156 149 148 145 144 144 147 138 138 139 142 156 161 166 177 181 182 181 181 180 185 168 178 196 227 243 249 252 251 22 342 5 9 342 322 325 321 321 318 314 316 318 322 328 332 335 338 338 338 335 333